Showing default

KOMPSAT 2, 29268

Orbit data source: Space-Track

KOMPSAT 2, 29268 is a payload satellite owned by KARI (KR) in SSO that was launched on Fri, 28 Jul 2006 UTC via an ROKOT launch vehicle from the Plesetsk Missile And Space Complex (PKMTR). Payload-class satellites include a variety of spacecraft equipped with specific instruments for various scientific and technological missions. These include communications satellites like Starlink; space stations such as the ISS; scientific satellites like the Hubble; Earth observation satellites from companies like Planet Labs, Umbra, and HawkEye 360; GPS; miniature CubeSats for education and research; and military/defense satellites.

Loading next visibility...
Identifier
29268, 2006-031A
Orbit
SSO
Country
Flag of KRKR / SKOR
Related business
Manufacturer
KARI
Mission
Operational Civil Imaging
Bus & Motor
KOMPSAT, Unknown motor
Mass
765 kg wet, 692 kg dry
Launch date (UTC)
2006-07-28 (20 years ago)
Launch vehicle
ROKOT
Launch site
Plesetsk Missile And Space Complex (PKMTR)
Object type
Payload
Rocket body
Debris
Shape & HBR
Box + 2 Pan, 3.5 m
Radar Cross Section
9.840 m², Large (>1 m²)

Expand to show TLE details & history
Last TLE update: 12 hours ago

TLE from 12 hours ago
0 KOMPSAT 2
1 29268U 06031A   26106.34084611  .00000061  00000-0  19894-4 0  9991
2 29268  97.8309 293.7782 0012983 270.5364 212.6015 14.64619959 52427
Epoch: 2026-04-16T08:10Z
TLE epoch observation values (Epoch: 2026-04-16T08:10:49.103Z)
Latitude
56.23135°
Longitude
158.38877°
Altitude
695.411 km
Speed
7.51 km/s
True Right ascension
08h 22m 19s
True Declination
56° 04' 15"
Sunlit
Object was in daylight at epoch
Visualization orbit readout
Latitude
Unknown
Longitude
Unknown
Altitude
Unknown
Speed
Unknown
Apparent Right ascension
Unknown
Apparent Declination
Unknown
Sunlit
N/A
Visualization observer readout
Local Sidereal Time
02:32:49
Azimuth
Unknown
Elevation
Unknown
Doppler factor
Unknown
Orbital elements
Apogee altitude
684.512 km
Perigee altitude
666.197 km
Semi-major axis
7,053.491 km
Eccentricity
0.0013
Inclination
97.8309°
RAAN
293.7782°
Arg. of periapsis
270.5364°
True anomaly
212.52145°
Mean anomaly
212.6015°
Eccentric anomaly
212.56146°
Mean motion
3.66384 °/min
Orbital period
98.26 mins
BSTAR
0.000019894
Loading maneuver chart data...
Computing Atmospheric mass density...
Loading historical data...
Loading historical data...
Loading historical data...
Loading historical data...
Loading historical data...
Loading historical data...
Loading historical data...
Other satellites on launch #31 in the year 2006 (2006-07-28 UTC)

Documentation

Showing up to 5 results
|